Weather History for Los Alamos, NM

Change the Weather History Date:

Saturday, May 25, 2013

  Actual Average Record
Temperature  
Mean Temperature 70 °F -  
Max Temperature 81 °F 70 °F 82 °F (1984)
Min Temperature 58 °F 45 °F 30 °F (1980)
Cooling Degree Days 4    
Growing Degree Days 20 (Base 50)    
Moisture  
Dew Point 27 °F    
Average Humidity 25    
Maximum Humidity 50    
Minimum Humidity 8    
Precipitation  
Precipitation 0.00 in - - ()
Sea Level Pressure  
Sea Level Pressure 30.18 in    
Wind  
Wind Speed 8 mph (SSW)    
Max Wind Speed 22 mph    
Max Gust Speed 31 mph    
Visibility 10 miles    
Events      
Averages and records for this station are not official NWS values.
T = Trace of Precipitation, MM = Missing Value Source: NWS Daily Summary

Daily Weather History Graph

Daily Weather History Graph

Search for Another Location

Airport:

Trip Planner

Search our weather history database for the weather conditions in past years. The results will help you decide how hot, cold, wet, or windy it might be!

Date:

Astronomy

May. 25, 2013 Rise Set
Actual Time 5:52 AM MDT 8:11 PM MDT
Civil Twilight 5:23 AM MDT 8:40 PM MDT
Nautical Twilight 4:47 AM MDT 9:16 PM MDT
Astronomical Twilight 4:08 AM MDT 9:56 PM MDT
Moon 9:02 PM MDT (5/25) 6:21 AM MDT (5/25)
Length of Visible Light 15h 17m
Length of Day
14h 18m
Waxing Gibbous, 99% of the Moon is Illuminated
May 25
Waxing Gibbous
May 31
Last Quarter
Jun 8
New
Jun 16
First Quarter
Jun 23
Full

Hourly Weather History & Observations

Time (MDT) Temp. Dew Point Humidity Pressure Visibility Wind Dir Wind Speed Gust Speed Precip Events Conditions
12:15 AM 65.8 °F 39.4 °F 38% 30.19 in 10.0 mi South 5.8 mph - N/A   Clear
12:35 AM 64.6 °F 38.8 °F 39% 30.19 in 10.0 mi Calm Calm - N/A   Clear
12:55 AM 64.2 °F 38.5 °F 39% 30.19 in 10.0 mi SSW 4.6 mph - N/A   Clear
1:15 AM 63.3 °F 40.1 °F 43% 30.19 in 10.0 mi SSW 3.5 mph - N/A   Clear
1:35 AM 62.6 °F 40.3 °F 44% 30.19 in 10.0 mi South 3.5 mph - N/A   Clear
1:55 AM 62.2 °F 41.0 °F 46% 30.19 in 10.0 mi Calm Calm - N/A   Clear
2:15 AM 60.8 °F 39.7 °F 46% 30.19 in 10.0 mi SW 5.8 mph - N/A   Clear
2:35 AM 59.9 °F 39.6 °F 47% 30.19 in 10.0 mi SW 8.1 mph - N/A   Clear
2:55 AM 60.8 °F 41.0 °F 48% 30.20 in 10.0 mi South 6.9 mph - N/A   Clear
3:15 AM 59.9 °F 40.6 °F 49% 30.21 in 10.0 mi South 5.8 mph - N/A   Clear
3:35 AM 59.2 °F 40.5 °F 50% 30.22 in 10.0 mi SSW 5.8 mph - N/A   Clear
3:55 AM 58.8 °F 40.3 °F 50% 30.22 in 10.0 mi SW 9.2 mph - N/A   Clear
4:15 AM 59.0 °F 40.3 °F 50% 30.21 in 10.0 mi SW 8.1 mph - N/A   Clear
4:35 AM 59.0 °F 39.9 °F 49% 30.21 in 10.0 mi SW 9.2 mph - N/A   Clear
4:55 AM 60.3 °F 38.3 °F 44% 30.21 in 10.0 mi SSW 9.2 mph - N/A   Clear
5:15 AM 59.2 °F 35.6 °F 41% 30.21 in 10.0 mi SSW 10.4 mph - N/A   Clear
5:35 AM 59.4 °F 37.8 °F 45% 30.21 in 10.0 mi SSW 11.5 mph - N/A   Clear
5:55 AM 59.9 °F 38.1 °F 44% 30.22 in 10.0 mi South 5.8 mph - N/A   Clear
6:15 AM 59.2 °F 37.6 °F 45% 30.23 in 10.0 mi South 5.8 mph - N/A   Clear
6:35 AM 58.5 °F 39.6 °F 49% 30.25 in 10.0 mi South 6.9 mph - N/A   Clear
6:55 AM 59.0 °F 39.7 °F 49% 30.25 in 10.0 mi SSW 5.8 mph - N/A   Clear
7:15 AM 60.1 °F 39.7 °F 47% 30.25 in 10.0 mi SSW 4.6 mph - N/A   Clear
7:35 AM 61.7 °F 40.8 °F 46% 30.25 in 10.0 mi South 3.5 mph - N/A   Clear
7:55 AM 62.2 °F 40.8 °F 45% 30.25 in 10.0 mi SSE 5.8 mph - N/A   Clear
8:15 AM 63.0 °F 41.5 °F 45% 30.25 in 10.0 mi SE 5.8 mph - N/A   Clear
8:35 AM 64.4 °F 40.3 °F 41% 30.26 in 10.0 mi South 5.8 mph - N/A   Clear
8:55 AM 65.3 °F 41.5 °F 42% 30.26 in 10.0 mi SE 8.1 mph - N/A   Clear
9:15 AM 65.7 °F 38.5 °F 37% 30.26 in 10.0 mi SSE 5.8 mph - N/A   Clear
9:35 AM 66.7 °F 38.3 °F 35% 30.26 in 10.0 mi SE 9.2 mph - N/A   Clear
9:55 AM 68.0 °F 37.0 °F 32% 30.25 in 10.0 mi SSE 3.5 mph - N/A   Clear
10:15 AM 69.3 °F 35.2 °F 29% 30.25 in 10.0 mi SE 9.2 mph - N/A   Clear
10:35 AM 71.1 °F 34.3 °F 26% 30.24 in 10.0 mi SE 12.7 mph 16.1 mph N/A   Clear
10:55 AM 72.0 °F 31.3 °F 22% 30.24 in 10.0 mi SSE 15.0 mph 23.0 mph N/A   Clear
11:15 AM 72.5 °F 30.9 °F 22% 30.24 in 10.0 mi SSE 15.0 mph 19.6 mph N/A   Clear
11:35 AM 72.7 °F 32.2 °F 23% 30.23 in 10.0 mi South 11.5 mph 20.7 mph N/A   Clear
11:55 AM 74.1 °F 26.6 °F 17% 30.23 in 10.0 mi SSE 13.8 mph 21.9 mph N/A   Clear
12:15 PM 74.1 °F 26.8 °F 17% 30.23 in 10.0 mi SSE 15.0 mph 20.7 mph N/A   Clear
12:35 PM 75.7 °F 18.1 °F 11% 30.22 in 10.0 mi South 19.6 mph 28.8 mph N/A   Clear
12:55 PM 75.9 °F 16.2 °F 10% 30.21 in 10.0 mi SSW 16.1 mph 24.2 mph N/A   Clear
1:15 PM 77.0 °F 14.7 °F 9% 30.20 in 10.0 mi SSE 19.6 mph 24.2 mph N/A   Clear
1:35 PM 77.9 °F 16.5 °F 10% 30.19 in 10.0 mi SSE 18.4 mph 24.2 mph N/A   Clear
1:55 PM 77.4 °F 17.4 °F 11% 30.19 in 10.0 mi South 10.4 mph 26.5 mph N/A   Clear
2:15 PM 78.1 °F 18.1 °F 11% 30.18 in 10.0 mi South 19.6 mph 28.8 mph N/A   Clear
2:35 PM 78.4 °F 18.1 °F 10% 30.18 in 10.0 mi SSW 12.7 mph 21.9 mph N/A   Clear
2:55 PM 78.6 °F 18.3 °F 10% 30.18 in 10.0 mi SSW 10.4 mph 25.3 mph N/A   Clear
3:15 PM 79.5 °F 16.7 °F 9% 30.17 in 10.0 mi South 13.8 mph 25.3 mph N/A   Clear
3:35 PM 79.7 °F 16.9 °F 10% 30.17 in 10.0 mi South 12.7 mph 20.7 mph N/A   Clear
3:55 PM 79.5 °F 15.6 °F 9% 30.16 in 10.0 mi SW 9.2 mph 20.7 mph N/A   Clear
4:15 PM 80.4 °F 15.6 °F 9% 30.15 in 10.0 mi SW 5.8 mph 17.3 mph N/A   Clear
4:35 PM 79.9 °F 15.3 °F 9% 30.14 in 10.0 mi South 19.6 mph 23.0 mph N/A   Clear
4:55 PM 79.5 °F 14.4 °F 9% 30.13 in 10.0 mi SSW 15.0 mph 24.2 mph N/A   Clear
5:15 PM 80.6 °F 14.7 °F 8% 30.13 in 10.0 mi SSW 17.3 mph 28.8 mph N/A   Clear
5:35 PM 81.5 °F 14.5 °F 8% 30.12 in 10.0 mi West 20.7 mph 28.8 mph N/A   Clear
5:55 PM 80.8 °F 14.0 °F 8% 30.11 in 10.0 mi WSW 13.8 mph 23.0 mph N/A   Clear
6:15 PM 79.2 °F 17.4 °F 10% 30.11 in 10.0 mi SSE 6.9 mph - N/A   Clear
6:35 PM 79.3 °F 17.4 °F 10% 30.10 in 10.0 mi SSE 8.1 mph 17.3 mph N/A   Clear
6:55 PM 79.0 °F 16.9 °F 10% 30.10 in 10.0 mi SE 10.4 mph - N/A   Clear
7:15 PM 79.3 °F 16.0 °F 9% 30.09 in 10.0 mi South 11.5 mph 16.1 mph N/A   Clear
7:35 PM 78.6 °F 16.0 °F 9% 30.09 in 10.0 mi SSE 9.2 mph - N/A   Clear
7:55 PM 77.5 °F 15.6 °F 10% 30.09 in 10.0 mi South 6.9 mph - N/A   Clear
8:15 PM 76.5 °F 15.8 °F 10% 30.10 in 10.0 mi South 6.9 mph - N/A   Clear
8:35 PM 75.2 °F 15.8 °F 11% 30.10 in 10.0 mi WSW 4.6 mph - N/A   Clear
8:55 PM 75.0 °F 11.7 °F 9% 30.11 in 10.0 mi WSW 8.1 mph - N/A   Clear
9:15 PM 73.8 °F 11.3 °F 9% 30.11 in 10.0 mi West 12.7 mph - N/A   Clear
9:35 PM 73.4 °F 11.1 °F 9% 30.11 in 10.0 mi West 15.0 mph - N/A   Clear
9:55 PM 73.2 °F 11.5 °F 9% 30.12 in 10.0 mi West 17.3 mph - N/A   Clear
10:15 PM 72.9 °F 12.9 °F 10% 30.13 in 10.0 mi West 17.3 mph 25.3 mph N/A   Clear
10:35 PM 72.0 °F 14.2 °F 11% 30.13 in 10.0 mi West 16.1 mph 23.0 mph N/A   Clear
10:55 PM 71.8 °F 14.9 °F 11% 30.13 in 10.0 mi West 19.6 mph 25.3 mph N/A   Clear
11:15 PM 71.6 °F 15.4 °F 12% 30.13 in 10.0 mi West 18.4 mph 29.9 mph N/A   Clear
11:35 PM 71.1 °F 14.9 °F 12% 30.13 in 10.0 mi West 21.9 mph 31.1 mph N/A   Clear
11:55 PM 70.9 °F 14.7 °F 12% 30.14 in 10.0 mi West 11.5 mph 31.1 mph N/A   Clear